Location: Mercogliano
(40.9167°N, 14.7333°E)
Time: 14:00:53
(UTC+00:00)

USA 234 - Pass Details

Date: 18 September 2020
Orbit: 1102 x 1106 km, 123.0° (Epoch: 16 October)

Event Time Altitude Azimuth Distance (km) Brightness Sun altitude
Rises 18:33:54 0° 49° (NE) 3,925 5.9 -17.4°
Reaches altitude 10° 18:36:26 10° 52° (NE) 2,965 5.2 -17.9°
Maximum altitude 18:42:56 64° 134° (SE) 1,210 3.2 -19.0°
Drops below altitude 10° 18:49:24 10° 215° (SW) 2,955 5.7 -20.2°
Sets 18:51:54 0° 218° (SW) 3,911 6.4 -20.6°
